Time,TemperatureF,DewpointF,PressureIn,WindDirection,WindDirectionDegrees,WindSpeedMPH,WindSpeedGustMPH,Humidity,HourlyPrecipIn,Conditions,Clouds,dailyrainin,SoftwareType,DateUTC
2013-07-01 00:01:00,73.6,71.4,29.91,East,90,2.7,2.7,93,0.00,,,0.00,VWS V14.01,2013-07-01 04:01:00,
2013-07-01 00:06:00,73.6,71.4,29.91,ESE,112,1.6,3.1,93,0.00,,,0.00,VWS V14.01,2013-07-01 04:06:00,
2013-07-01 00:11:00,73.6,71.4,29.91,East,90,0.0,0.0,93,0.00,,,0.00,VWS V14.01,2013-07-01 04:11:00,
2013-07-01 00:16:00,73.6,71.4,29.91,West,270,0.0,2.7,93,0.00,,,0.00,VWS V14.01,2013-07-01 04:16:00,
2013-07-01 00:21:00,73.4,71.3,29.91,ESE,112,2.0,2.0,93,0.00,,,0.00,VWS V14.01,2013-07-01 04:21:00,
2013-07-01 00:26:00,73.4,71.3,29.91,East,90,0.0,1.3,93,0.00,,,0.00,VWS V14.01,2013-07-01 04:26:00,
2013-07-01 00:31:00,73.6,71.4,29.91,SE,135,2.0,2.0,93,0.00,,,0.00,VWS V14.01,2013-07-01 04:31:00,
2013-07-01 00:36:00,73.6,71.4,29.91,ESE,112,2.2,2.2,93,0.00,,,0.00,VWS V14.01,2013-07-01 04:36:00,
2013-07-01 00:41:00,73.6,71.4,29.91,South,180,2.5,2.9,93,0.00,,,0.00,VWS V14.01,2013-07-01 04:41:00,
2013-07-01 00:46:00,73.6,71.4,29.91,ESE,112,2.7,2.7,93,0.00,,,0.00,VWS V14.01,2013-07-01 04:46:00,
2013-07-01 00:51:00,73.4,71.3,29.91,ESE,112,3.6,3.6,93,0.00,,,0.00,VWS V14.01,2013-07-01 04:51:00,
2013-07-01 00:56:00,73.4,71.3,29.91,SSE,158,0.0,0.0,93,0.00,,,0.00,VWS V14.01,2013-07-01 04:56:00,
2013-07-01 01:01:00,73.4,71.3,29.91,SSE,158,2.7,2.7,93,0.00,,,0.00,VWS V14.01,2013-07-01 05:01:00,
2013-07-01 01:06:00,73.4,71.3,29.91,NE,45,0.0,0.0,93,0.00,,,0.00,VWS V14.01,2013-07-01 05:06:00,
2013-07-01 01:11:00,73.4,71.3,29.91,East,90,1.3,1.3,93,0.00,,,0.00,VWS V14.01,2013-07-01 05:11:00,
2013-07-01 01:16:00,73.4,71.3,29.91,East,90,0.0,0.0,93,0.00,,,0.00,VWS V14.01,2013-07-01 05:16:00,
2013-07-01 01:21:00,73.4,71.3,29.91,South,180,0.9,0.9,93,0.00,,,0.00,VWS V14.01,2013-07-01 05:21:00,
2013-07-01 01:26:00,73.4,71.3,29.91,ESE,112,0.0,0.0,93,0.00,,,0.00,VWS V14.01,2013-07-01 05:26:00,
2013-07-01 01:31:00,73.4,71.3,29.91,ESE,112,0.0,1.1,93,0.00,,,0.00,VWS V14.01,2013-07-01 05:31:00,
2013-07-01 01:36:00,73.4,71.3,29.91,ESE,112,0.0,0.0,93,0.00,,,0.00,VWS V14.01,2013-07-01 05:36:00,
2013-07-01 01:41:00,73.4,71.3,29.91,ESE,112,0.9,0.9,93,0.00,,,0.00,VWS V14.01,2013-07-01 05:41:00,
2013-07-01 01:46:00,73.4,71.3,29.91,ESE,112,3.1,3.1,93,0.00,,,0.00,VWS V14.01,2013-07-01 05:46:00,
2013-07-01 01:50:00,73.4,71.3,29.91,East,90,1.6,2.0,93,0.00,,,0.00,VWS V14.01,2013-07-01 05:50:00,
2013-07-01 01:55:00,73.4,71.3,29.91,ESE,112,1.1,1.1,93,0.00,,,0.00,VWS V14.01,2013-07-01 05:55:00,
2013-07-01 02:00:00,73.4,71.3,29.91,SE,135,2.0,2.0,93,0.00,,,0.00,VWS V14.01,2013-07-01 06:00:00,
2013-07-01 02:05:00,73.2,71.1,29.91,ESE,112,2.7,2.7,93,0.00,,,0.00,VWS V14.01,2013-07-01 06:05:00,
2013-07-01 02:10:00,73.2,71.1,29.91,ESE,112,1.1,1.1,93,0.00,,,0.00,VWS V14.01,2013-07-01 06:10:00,
2013-07-01 02:15:00,73.0,70.9,29.88,East,90,1.6,1.6,93,0.00,,,0.00,VWS V14.01,2013-07-01 06:15:00,
2013-07-01 02:20:00,73.0,70.9,29.88,ESE,112,2.9,2.9,93,0.00,,,0.00,VWS V14.01,2013-07-01 06:20:00,
2013-07-01 02:25:00,73.0,70.9,29.88,ESE,112,3.1,3.1,93,0.00,,,0.00,VWS V14.01,2013-07-01 06:25:00,
2013-07-01 02:30:00,72.9,70.7,29.88,East,90,2.5,2.5,93,0.00,,,0.00,VWS V14.01,2013-07-01 06:30:00,
2013-07-01 02:35:00,72.9,70.7,29.88,SE,135,3.4,3.4,93,0.00,,,0.00,VWS V14.01,2013-07-01 06:35:00,
2013-07-01 02:36:00,72.9,70.7,29.88,SE,135,3.4,3.4,93,0.00,,,0.00,VWS V14.01,2013-07-01 06:36:00,
2013-07-01 02:40:00,73.0,70.9,29.88,ENE,68,1.3,1.3,93,0.00,,,0.00,VWS V14.01,2013-07-01 06:40:00,
2013-07-01 02:46:00,73.0,70.9,29.91,South,180,0.0,0.0,93,0.00,,,0.00,VWS V14.01,2013-07-01 06:46:00,
2013-07-01 02:51:00,73.0,70.9,29.91,ENE,68,2.0,2.0,93,0.00,,,0.00,VWS V14.01,2013-07-01 06:51:00,
2013-07-01 02:55:00,73.0,70.9,29.91,NE,45,2.0,2.0,93,0.00,,,0.00,VWS V14.01,2013-07-01 06:55:00,
2013-07-01 03:00:00,73.0,70.9,29.88,ENE,68,2.2,2.2,93,0.00,,,0.00,VWS V14.01,2013-07-01 07:00:00,
2013-07-01 03:05:00,73.0,70.9,29.88,ESE,112,1.3,1.3,93,0.00,,,0.00,VWS V14.01,2013-07-01 07:05:00,
2013-07-01 03:10:00,73.0,70.9,29.88,ESE,112,0.0,1.3,93,0.00,,,0.00,VWS V14.01,2013-07-01 07:10:00,
2013-07-01 03:15:00,73.0,70.9,29.91,ESE,112,0.9,2.2,93,0.00,,,0.00,VWS V14.01,2013-07-01 07:15:00,
2013-07-01 03:20:00,72.9,70.7,29.91,ESE,112,1.3,1.3,93,0.00,,,0.00,VWS V14.01,2013-07-01 07:20:00,
2013-07-01 03:21:00,72.9,70.7,29.91,ESE,112,1.3,1.3,93,0.00,,,0.00,VWS V14.01,2013-07-01 07:21:00,
2013-07-01 03:26:00,72.9,70.7,29.91,ESE,112,1.3,1.3,93,0.00,,,0.00,VWS V14.01,2013-07-01 07:26:00,
2013-07-01 03:31:00,72.9,71.0,29.91,East,90,2.0,2.0,94,0.00,,,0.00,VWS V14.01,2013-07-01 07:31:00,
2013-07-01 03:35:00,72.9,71.0,29.91,ESE,112,1.3,2.7,94,0.00,,,0.00,VWS V14.01,2013-07-01 07:35:00,
2013-07-01 03:40:00,72.9,71.0,29.91,ESE,112,2.9,2.9,94,0.00,,,0.00,VWS V14.01,2013-07-01 07:40:00,
2013-07-01 03:45:00,72.9,71.0,29.91,East,90,3.1,3.6,94,0.00,,,0.00,VWS V14.01,2013-07-01 07:45:00,
2013-07-01 03:50:00,72.9,71.0,29.91,ENE,68,1.3,1.3,94,0.00,,,0.00,VWS V14.01,2013-07-01 07:50:00,
2013-07-01 03:55:00,73.0,71.2,29.91,East,90,1.3,2.0,94,0.00,,,0.00,VWS V14.01,2013-07-01 07:55:00,
2013-07-01 04:00:00,73.0,71.2,29.91,South,180,1.3,1.3,94,0.00,,,0.00,VWS V14.01,2013-07-01 08:00:00,
2013-07-01 04:05:00,73.0,71.2,29.91,NE,45,1.1,1.1,94,0.00,,,0.00,VWS V14.01,2013-07-01 08:05:00,
2013-07-01 04:10:00,73.0,71.2,29.91,ESE,112,0.9,1.6,94,0.00,,,0.00,VWS V14.01,2013-07-01 08:10:00,
2013-07-01 04:15:00,73.2,71.4,29.91,East,90,3.1,3.1,94,0.00,,,0.00,VWS V14.01,2013-07-01 08:15:00,
2013-07-01 04:20:00,73.2,71.4,29.91,East,90,1.6,2.7,94,0.00,,,0.00,VWS V14.01,2013-07-01 08:20:00,
2013-07-01 04:25:00,73.2,71.4,29.91,ESE,112,1.3,2.7,94,0.00,,,0.00,VWS V14.01,2013-07-01 08:25:00,
2013-07-01 04:30:00,73.2,71.4,29.91,ESE,112,3.6,3.6,94,0.00,,,0.00,VWS V14.01,2013-07-01 08:30:00,
2013-07-01 04:35:00,73.4,71.6,29.91,East,90,2.0,6.3,94,0.00,,,0.00,VWS V14.01,2013-07-01 08:35:00,
2013-07-01 04:40:00,73.4,71.6,29.91,SSE,158,1.6,2.0,94,0.00,,,0.00,VWS V14.01,2013-07-01 08:40:00,
2013-07-01 04:45:00,73.6,71.8,29.91,East,90,4.9,4.9,94,0.00,,,0.00,VWS V14.01,2013-07-01 08:45:00,
2013-07-01 04:50:00,73.6,71.8,29.91,ENE,68,2.0,2.0,94,0.00,,,0.00,VWS V14.01,2013-07-01 08:50:00,
2013-07-01 04:55:00,73.6,71.8,29.91,ENE,68,3.4,3.4,94,0.00,,,0.00,VWS V14.01,2013-07-01 08:55:00,
2013-07-01 05:00:00,73.6,71.8,29.91,ESE,112,0.0,2.2,94,0.00,,,0.00,VWS V14.01,2013-07-01 09:00:00,
2013-07-01 05:05:00,73.6,71.8,29.91,ENE,68,2.7,3.4,94,0.00,,,0.00,VWS V14.01,2013-07-01 09:05:00,
2013-07-01 05:10:00,73.8,71.9,29.91,SE,135,3.6,3.6,94,0.00,,,0.00,VWS V14.01,2013-07-01 09:10:00,
2013-07-01 05:15:00,73.8,71.9,29.91,East,90,2.0,2.0,94,0.00,,,0.00,VWS V14.01,2013-07-01 09:15:00,
2013-07-01 05:20:00,73.8,71.9,29.91,East,90,2.2,2.2,94,0.00,,,0.00,VWS V14.01,2013-07-01 09:20:00,
2013-07-01 05:25:00,73.8,71.9,29.91,ESE,112,3.6,3.6,94,0.00,,,0.00,VWS V14.01,2013-07-01 09:25:00,
2013-07-01 05:30:00,73.8,71.9,29.88,ESE,112,3.4,3.4,94,0.00,,,0.00,VWS V14.01,2013-07-01 09:30:00,
2013-07-01 05:35:00,73.8,71.9,29.88,East,90,2.5,2.5,94,0.00,,,0.00,VWS V14.01,2013-07-01 09:35:00,
2013-07-01 05:40:00,73.8,71.9,29.88,East,90,3.1,3.1,94,0.00,,,0.00,VWS V14.01,2013-07-01 09:40:00,
2013-07-01 05:45:00,73.9,72.1,29.91,ESE,112,1.6,2.0,94,0.00,,,0.00,VWS V14.01,2013-07-01 09:45:00,
2013-07-01 05:50:00,73.9,72.1,29.91,ENE,68,1.3,3.4,94,0.00,,,0.00,VWS V14.01,2013-07-01 09:50:00,
2013-07-01 05:55:00,73.9,72.1,29.91,NNE,22,2.7,2.7,94,0.00,,,0.00,VWS V14.01,2013-07-01 09:55:00,
2013-07-01 06:00:00,74.1,72.3,29.91,ESE,112,3.6,3.8,94,0.00,,,0.00,VWS V14.01,2013-07-01 10:00:00,
2013-07-01 06:05:00,74.1,72.3,29.91,ESE,112,2.7,2.7,94,0.00,,,0.00,VWS V14.01,2013-07-01 10:05:00,
2013-07-01 06:10:00,73.9,71.8,29.91,West,270,4.3,4.3,93,0.00,,,0.00,VWS V14.01,2013-07-01 10:10:00,
2013-07-01 06:15:00,73.9,71.8,29.91,East,90,0.0,1.1,93,0.00,,,0.00,VWS V14.01,2013-07-01 10:15:00,
2013-07-01 06:20:00,73.9,71.8,29.91,ENE,68,1.1,1.1,93,0.00,,,0.00,VWS V14.01,2013-07-01 10:20:00,
2013-07-01 06:25:00,74.1,72.0,29.91,SE,135,1.6,2.5,93,0.00,,,0.00,VWS V14.01,2013-07-01 10:25:00,
2013-07-01 06:30:00,74.1,72.0,29.88,ESE,112,1.1,3.6,93,0.00,,,0.00,VWS V14.01,2013-07-01 10:30:00,
2013-07-01 06:35:00,74.1,72.0,29.88,ESE,112,1.3,1.3,93,0.00,,,0.00,VWS V14.01,2013-07-01 10:35:00,
2013-07-01 06:40:00,74.1,72.0,29.88,NNE,22,4.3,4.3,93,0.00,,,0.00,VWS V14.01,2013-07-01 10:40:00,
2013-07-01 06:45:00,74.1,72.0,29.91,ENE,68,2.9,2.9,93,0.00,,,0.00,VWS V14.01,2013-07-01 10:45:00,
2013-07-01 06:50:00,74.3,72.2,29.91,ESE,112,3.1,3.4,93,0.00,,,0.00,VWS V14.01,2013-07-01 10:50:00,
2013-07-01 06:55:00,74.5,72.0,29.91,ENE,68,6.0,6.0,92,0.00,,,0.00,VWS V14.01,2013-07-01 10:55:00,
2013-07-01 07:00:00,74.5,72.0,29.94,NE,45,0.9,4.0,92,0.00,,,0.00,VWS V14.01,2013-07-01 11:00:00,
2013-07-01 07:05:00,74.7,72.2,29.94,ENE,68,4.9,4.9,92,0.00,,,0.00,VWS V14.01,2013-07-01 11:05:00,
2013-07-01 07:10:00,74.7,72.2,29.94,ESE,112,3.1,6.5,92,0.00,,,0.00,VWS V14.01,2013-07-01 11:10:00,
2013-07-01 07:15:00,74.8,72.4,29.94,ESE,112,5.6,5.6,92,0.00,,,0.00,VWS V14.01,2013-07-01 11:15:00,
2013-07-01 07:20:00,75.0,72.5,29.94,East,90,2.9,2.9,92,0.00,,,0.00,VWS V14.01,2013-07-01 11:20:00,
2013-07-01 07:25:00,75.0,72.5,29.94,East,90,2.9,3.4,92,0.00,,,0.00,VWS V14.01,2013-07-01 11:25:00,
2013-07-01 07:30:00,75.0,72.5,29.94,NNW,338,2.7,3.1,92,0.00,,,0.00,VWS V14.01,2013-07-01 11:30:00,
2013-07-01 07:35:00,75.0,72.5,29.94,East,90,3.1,3.6,92,0.00,,,0.00,VWS V14.01,2013-07-01 11:35:00,
2013-07-01 07:40:00,75.0,72.5,29.94,SE,135,2.2,2.2,92,0.00,,,0.00,VWS V14.01,2013-07-01 11:40:00,
2013-07-01 07:45:00,75.2,72.7,29.97,East,90,3.1,3.1,92,0.00,,,0.00,VWS V14.01,2013-07-01 11:45:00,
2013-07-01 07:50:00,75.2,72.4,29.97,East,90,3.4,3.4,91,0.00,,,0.00,VWS V14.01,2013-07-01 11:50:00,
2013-07-01 07:55:00,75.2,72.4,29.97,East,90,5.4,5.4,91,0.00,,,0.00,VWS V14.01,2013-07-01 11:55:00,
2013-07-01 08:00:00,75.4,72.6,29.97,ESE,112,2.0,2.0,91,0.00,,,0.00,VWS V14.01,2013-07-01 12:00:00,
2013-07-01 08:05:00,75.6,72.4,29.97,East,90,2.9,2.9,90,0.00,,,0.00,VWS V14.01,2013-07-01 12:05:00,
2013-07-01 08:10:00,75.6,72.4,29.97,South,180,3.6,3.6,90,0.00,,,0.00,VWS V14.01,2013-07-01 12:10:00,
2013-07-01 08:15:00,75.7,72.6,29.97,ESE,112,0.9,3.1,90,0.00,,,0.00,VWS V14.01,2013-07-01 12:15:00,
2013-07-01 08:20:00,75.7,72.6,29.97,ESE,112,6.3,6.3,90,0.00,,,0.00,VWS V14.01,2013-07-01 12:20:00,
2013-07-01 08:25:00,75.9,72.8,29.97,NNE,22,6.5,6.5,90,0.00,,,0.00,VWS V14.01,2013-07-01 12:25:00,
2013-07-01 08:30:00,76.1,72.6,29.97,SSW,202,3.6,3.6,89,0.00,,,0.00,VWS V14.01,2013-07-01 12:30:00,
2013-07-01 08:35:00,76.3,72.8,29.97,ESE,112,1.3,2.5,89,0.00,,,0.00,VWS V14.01,2013-07-01 12:35:00,
2013-07-01 08:40:00,76.3,72.8,29.97,West,270,3.1,3.6,89,0.00,,,0.00,VWS V14.01,2013-07-01 12:40:00,
2013-07-01 08:45:00,76.5,72.7,29.97,NNE,22,2.9,3.1,88,0.00,,,0.00,VWS V14.01,2013-07-01 12:45:00,
2013-07-01 08:50:00,76.5,72.3,29.97,East,90,3.1,4.7,87,0.00,,,0.00,VWS V14.01,2013-07-01 12:50:00,
2013-07-01 08:55:00,76.8,72.7,29.97,NE,45,1.6,6.0,87,0.00,,,0.00,VWS V14.01,2013-07-01 12:55:00,
2013-07-01 09:00:00,76.8,72.3,29.97,ENE,68,3.1,5.6,86,0.00,,,0.00,VWS V14.01,2013-07-01 13:00:00,
2013-07-01 09:05:00,77.0,71.8,29.97,NE,45,4.0,6.5,84,0.00,,,0.00,VWS V14.01,2013-07-01 13:05:00,
2013-07-01 09:10:00,77.0,71.8,29.97,ESE,112,3.1,9.6,84,0.00,,,0.00,VWS V14.01,2013-07-01 13:10:00,
2013-07-01 09:15:00,76.8,71.6,29.97,East,90,2.7,4.0,84,0.00,,,0.00,VWS V14.01,2013-07-01 13:15:00,
2013-07-01 09:20:00,77.0,71.4,29.97,East,90,3.4,6.5,83,0.00,,,0.00,VWS V14.01,2013-07-01 13:20:00,
2013-07-01 09:25:00,77.2,72.0,29.97,East,90,4.3,6.9,84,0.00,,,0.00,VWS V14.01,2013-07-01 13:25:00,
2013-07-01 09:30:00,77.4,71.4,29.97,ESE,112,5.8,5.8,82,0.00,,,0.00,VWS V14.01,2013-07-01 13:30:00,
2013-07-01 09:35:00,77.7,71.1,29.97,SE,135,3.8,6.9,80,0.00,,,0.00,VWS V14.01,2013-07-01 13:35:00,
2013-07-01 09:40:00,77.9,70.9,29.97,ESE,112,4.5,4.9,79,0.00,,,0.00,VWS V14.01,2013-07-01 13:40:00,
2013-07-01 09:45:00,77.9,70.5,29.97,NNE,22,5.6,5.6,78,0.00,,,0.00,VWS V14.01,2013-07-01 13:45:00,
2013-07-01 09:50:00,77.9,70.5,29.97,East,90,8.1,8.1,78,0.00,,,0.00,VWS V14.01,2013-07-01 13:50:00,
2013-07-01 09:55:00,77.9,70.5,29.97,ENE,68,2.2,5.6,78,0.00,,,0.00,VWS V14.01,2013-07-01 13:55:00,
2013-07-01 10:00:00,78.4,71.0,29.97,NNW,338,4.3,4.3,78,0.00,,,0.00,VWS V14.01,2013-07-01 14:00:00,
2013-07-01 10:05:00,78.8,70.6,29.97,East,90,5.6,5.6,76,0.00,,,0.00,VWS V14.01,2013-07-01 14:05:00,
2013-07-01 10:10:00,79.9,72.4,29.97,NE,45,5.6,5.6,78,0.00,,,0.00,VWS V14.01,2013-07-01 14:10:00,
2013-07-01 10:15:00,80.4,71.8,29.94,ENE,68,2.7,2.7,75,0.00,,,0.00,VWS V14.01,2013-07-01 14:15:00,
2013-07-01 10:20:00,80.8,71.3,29.94,ESE,112,1.3,3.8,73,0.00,,,0.00,VWS V14.01,2013-07-01 14:20:00,
2013-07-01 10:25:00,80.6,69.5,29.94,NE,45,4.7,10.1,69,0.00,,,0.00,VWS V14.01,2013-07-01 14:25:00,
2013-07-01 10:30:00,80.4,69.8,29.94,NE,45,7.2,7.2,70,0.00,,,0.00,VWS V14.01,2013-07-01 14:30:00,
2013-07-01 10:35:00,80.2,69.6,29.94,SE,135,8.5,8.5,70,0.00,,,0.00,VWS V14.01,2013-07-01 14:35:00,
2013-07-01 10:40:00,80.6,70.3,29.94,ESE,112,2.7,7.8,71,0.00,,,0.00,VWS V14.01,2013-07-01 14:40:00,
2013-07-01 10:45:00,80.8,70.1,29.97,ENE,68,6.5,6.5,70,0.00,,,0.00,VWS V14.01,2013-07-01 14:45:00,
2013-07-01 10:50:00,80.8,69.7,29.97,ENE,68,2.9,3.8,69,0.00,,,0.00,VWS V14.01,2013-07-01 14:50:00,
2013-07-01 10:55:00,81.0,69.8,29.97,NE,45,4.9,5.8,69,0.00,,,0.00,VWS V14.01,2013-07-01 14:55:00,
2013-07-01 11:00:00,81.3,69.8,29.97,NE,45,3.4,3.4,68,0.00,,,0.00,VWS V14.01,2013-07-01 15:00:00,
2013-07-01 11:05:00,81.5,69.9,29.97,ESE,112,3.6,3.6,68,0.00,,,0.00,VWS V14.01,2013-07-01 15:05:00,
2013-07-01 11:10:00,81.5,69.5,29.97,ESE,112,6.5,6.5,67,0.00,,,0.00,VWS V14.01,2013-07-01 15:10:00,
2013-07-01 11:15:00,81.9,69.8,29.97,NE,45,5.8,5.8,67,0.00,,,0.00,VWS V14.01,2013-07-01 15:15:00,
2013-07-01 11:20:00,82.0,69.6,29.97,NE,45,4.3,4.3,66,0.00,,,0.00,VWS V14.01,2013-07-01 15:20:00,
2013-07-01 11:25:00,82.2,69.7,29.97,ESE,112,2.9,3.6,66,0.00,,,0.00,VWS V14.01,2013-07-01 15:25:00,
2013-07-01 11:30:00,82.4,69.5,29.97,East,90,3.6,4.9,65,0.00,,,0.00,VWS V14.01,2013-07-01 15:30:00,
2013-07-01 11:35:00,83.3,70.8,29.97,NE,45,0.9,4.9,66,0.00,,,0.00,VWS V14.01,2013-07-01 15:35:00,
2013-07-01 11:40:00,83.7,70.7,29.97,North,0,5.4,5.4,65,0.00,,,0.00,VWS V14.01,2013-07-01 15:40:00,
2013-07-01 11:45:00,84.2,69.8,30.00,ENE,68,4.7,5.8,62,0.00,,,0.00,VWS V14.01,2013-07-01 15:45:00,
2013-07-01 11:50:00,84.4,70.4,30.00,East,90,4.0,8.1,63,0.00,,,0.00,VWS V14.01,2013-07-01 15:50:00,
2013-07-01 11:55:00,84.4,70.9,30.00,ESE,112,2.7,3.1,64,0.00,,,0.00,VWS V14.01,2013-07-01 15:55:00,
2013-07-01 12:00:00,85.3,72.6,30.00,SE,135,2.7,2.7,66,0.00,,,0.00,VWS V14.01,2013-07-01 16:00:00,
2013-07-01 12:05:00,85.1,72.0,30.00,ENE,68,3.8,6.0,65,0.00,,,0.00,VWS V14.01,2013-07-01 16:05:00,
2013-07-01 12:10:00,84.7,72.1,30.00,NE,45,1.6,3.4,66,0.00,,,0.00,VWS V14.01,2013-07-01 16:10:00,
2013-07-01 12:15:00,84.6,72.0,30.00,ENE,68,2.5,4.3,66,0.00,,,0.00,VWS V14.01,2013-07-01 16:15:00,
2013-07-01 12:20:00,84.9,72.8,30.00,South,180,1.1,3.1,67,0.00,,,0.00,VWS V14.01,2013-07-01 16:20:00,
2013-07-01 12:25:00,86.2,73.5,30.00,SE,135,3.1,3.1,66,0.00,,,0.00,VWS V14.01,2013-07-01 16:25:00,
2013-07-01 12:30:00,86.2,73.5,30.00,ESE,112,0.9,3.4,66,0.00,,,0.00,VWS V14.01,2013-07-01 16:30:00,
2013-07-01 12:35:00,85.8,73.2,30.00,SE,135,2.9,3.6,66,0.00,,,0.00,VWS V14.01,2013-07-01 16:35:00,
2013-07-01 12:40:00,85.3,73.1,30.00,East,90,2.7,2.7,67,0.00,,,0.00,VWS V14.01,2013-07-01 16:40:00,
2013-07-01 12:45:00,85.8,74.0,30.00,East,90,4.0,5.4,68,0.00,,,0.00,VWS V14.01,2013-07-01 16:45:00,
2013-07-01 12:50:00,85.1,73.4,30.00,ESE,112,1.3,3.1,68,0.00,,,0.00,VWS V14.01,2013-07-01 16:50:00,
2013-07-01 12:55:00,84.9,73.6,30.00,East,90,0.9,4.0,69,0.00,,,0.00,VWS V14.01,2013-07-01 16:55:00,
2013-07-01 13:00:00,84.6,73.3,30.00,ESE,112,3.1,4.0,69,0.00,,,0.00,VWS V14.01,2013-07-01 17:00:00,
2013-07-01 13:05:00,84.7,74.3,30.00,ESE,112,0.0,2.0,71,0.00,,,0.00,VWS V14.01,2013-07-01 17:05:00,
2013-07-01 13:10:00,85.1,74.2,30.00,ENE,68,3.1,4.5,70,0.00,,,0.00,VWS V14.01,2013-07-01 17:10:00,
2013-07-01 13:15:00,85.3,74.8,30.00,NNE,22,2.0,7.4,71,0.00,,,0.00,VWS V14.01,2013-07-01 17:15:00,
2013-07-01 13:20:00,85.3,74.4,30.00,ESE,112,4.7,5.8,70,0.00,,,0.00,VWS V14.01,2013-07-01 17:20:00,
2013-07-01 13:25:00,85.8,75.3,30.00,East,90,4.3,4.3,71,0.00,,,0.00,VWS V14.01,2013-07-01 17:25:00,
2013-07-01 13:30:00,87.1,75.7,29.97,NE,45,3.1,3.4,69,0.00,,,0.00,VWS V14.01,2013-07-01 17:30:00,
2013-07-01 13:35:00,88.0,76.1,29.97,NE,45,5.6,5.6,68,0.00,,,0.00,VWS V14.01,2013-07-01 17:35:00,
2013-07-01 13:40:00,88.3,76.0,29.97,East,90,3.6,3.6,67,0.00,,,0.00,VWS V14.01,2013-07-01 17:40:00,
2013-07-01 13:45:00,89.2,76.4,29.97,East,90,3.4,5.6,66,0.00,,,0.00,VWS V14.01,2013-07-01 17:45:00,
2013-07-01 13:50:00,88.3,75.1,29.97,SE,135,4.3,4.3,65,0.00,,,0.00,VWS V14.01,2013-07-01 17:50:00,
2013-07-01 13:55:00,87.6,74.4,29.97,NE,45,6.0,6.3,65,0.00,,,0.00,VWS V14.01,2013-07-01 17:55:00,
2013-07-01 14:00:00,87.6,74.9,29.97,North,0,5.8,6.5,66,0.00,,,0.00,VWS V14.01,2013-07-01 18:00:00,
2013-07-01 14:05:00,88.2,74.4,29.97,East,90,2.9,6.5,64,0.00,,,0.00,VWS V14.01,2013-07-01 18:05:00,
2013-07-01 14:10:00,88.3,74.6,29.97,NNE,22,5.8,6.0,64,0.00,,,0.00,VWS V14.01,2013-07-01 18:10:00,
2013-07-01 14:15:00,88.2,74.4,29.97,ESE,112,5.6,5.6,64,0.00,,,0.00,VWS V14.01,2013-07-01 18:15:00,
2013-07-01 14:20:00,87.8,74.1,29.97,ENE,68,2.0,5.8,64,0.00,,,0.00,VWS V14.01,2013-07-01 18:20:00,
2013-07-01 14:25:00,88.2,74.4,29.97,East,90,4.9,5.8,64,0.00,,,0.00,VWS V14.01,2013-07-01 18:25:00,
2013-07-01 14:30:00,87.8,73.6,29.97,NW,315,3.6,4.3,63,0.00,,,0.00,VWS V14.01,2013-07-01 18:30:00,
2013-07-01 14:35:00,88.2,74.9,29.97,East,90,1.6,3.8,65,0.00,,,0.00,VWS V14.01,2013-07-01 18:35:00,
2013-07-01 14:40:00,86.9,73.7,29.97,North,0,6.5,6.5,65,0.00,,,0.00,VWS V14.01,2013-07-01 18:40:00,
2013-07-01 14:45:00,86.5,73.8,29.97,ENE,68,5.8,5.8,66,0.00,,,0.00,VWS V14.01,2013-07-01 18:45:00,
2013-07-01 14:50:00,86.2,73.9,29.97,SE,135,2.7,2.7,67,0.00,,,0.00,VWS V14.01,2013-07-01 18:50:00,
2013-07-01 14:55:00,85.8,73.6,29.97,ENE,68,2.2,5.4,67,0.00,,,0.00,VWS V14.01,2013-07-01 18:55:00,
2013-07-01 15:00:00,85.6,73.9,29.97,ESE,112,0.9,0.9,68,0.00,,,0.00,VWS V14.01,2013-07-01 19:00:00,
2013-07-01 15:05:00,84.2,72.5,29.97,NNW,338,15.2,15.2,68,0.00,,,0.00,VWS V14.01,2013-07-01 19:05:00,
2013-07-01 15:10:00,79.3,69.9,29.97,WNW,292,6.3,6.3,73,0.00,,,0.00,VWS V14.01,2013-07-01 19:10:00,
2013-07-01 15:15:00,76.6,69.6,29.97,NNW,338,1.6,3.4,79,0.00,,,0.00,VWS V14.01,2013-07-01 19:15:00,
2013-07-01 15:20:00,76.1,69.8,29.97,NNE,22,3.6,5.4,81,0.00,,,0.00,VWS V14.01,2013-07-01 19:20:00,
2013-07-01 15:25:00,75.6,70.0,29.97,NW,315,2.5,2.7,83,0.00,,,0.00,VWS V14.01,2013-07-01 19:25:00,
2013-07-01 15:30:00,75.2,70.4,29.97,WNW,292,0.9,2.0,85,0.00,,,0.00,VWS V14.01,2013-07-01 19:30:00,
2013-07-01 15:35:00,74.8,70.0,29.97,SW,225,3.1,9.6,85,0.00,,,0.00,VWS V14.01,2013-07-01 19:35:00,
2013-07-01 15:40:00,74.3,70.2,29.97,SSE,158,4.0,5.8,87,0.00,,,0.00,VWS V14.01,2013-07-01 19:40:00,
2013-07-01 15:45:00,73.4,70.3,30.00,SE,135,3.1,5.4,90,0.00,,,0.00,VWS V14.01,2013-07-01 19:45:00,
2013-07-01 15:50:00,72.7,70.2,30.00,East,90,4.0,6.9,92,0.04,,,0.04,VWS V14.01,2013-07-01 19:50:00,
2013-07-01 15:55:00,72.7,70.5,30.00,South,180,1.6,1.6,93,0.04,,,0.04,VWS V14.01,2013-07-01 19:55:00,
2013-07-01 16:00:00,72.9,70.7,30.00,NE,45,1.1,2.5,93,0.04,,,0.04,VWS V14.01,2013-07-01 20:00:00,
2013-07-01 16:05:00,73.0,71.2,30.00,East,90,5.6,5.6,94,0.04,,,0.04,VWS V14.01,2013-07-01 20:05:00,
2013-07-01 16:10:00,73.0,71.2,30.00,NE,45,4.0,4.0,94,0.08,,,0.08,VWS V14.01,2013-07-01 20:10:00,
2013-07-01 16:15:00,73.0,71.2,30.00,East,90,2.2,2.2,94,0.08,,,0.08,VWS V14.01,2013-07-01 20:15:00,
2013-07-01 16:20:00,73.2,71.4,30.00,East,90,2.2,2.5,94,0.08,,,0.08,VWS V14.01,2013-07-01 20:20:00,
2013-07-01 16:25:00,73.2,71.4,30.00,ESE,112,2.5,458.5,94,0.12,,,0.12,VWS V14.01,2013-07-01 20:25:00,
2013-07-01 16:31:00,73.4,71.3,30.00,North,0,0.9,0.9,93,0.12,,,0.12,VWS V14.01,2013-07-01 20:31:00,
2013-07-01 16:36:00,73.4,71.6,30.00,NNW,343,2.5,6.0,93,0.00,,,0.21,Cumulus v1.9.3,2013-07-01 20:36:00,
2013-07-01 16:41:00,73.6,71.6,30.00,NNW,341,0.0,6.0,93,0.00,,,0.21,Cumulus v1.9.3,2013-07-01 20:41:00,
2013-07-01 16:46:00,73.6,71.6,29.97,NE,43,1.1,3.4,93,0.00,,,0.21,Cumulus v1.9.3,2013-07-01 20:46:00,
2013-07-01 16:51:00,73.8,71.3,29.97,NE,54,1.1,3.1,92,0.00,,,0.21,Cumulus v1.9.3,2013-07-01 20:51:00,
2013-07-01 16:56:00,73.9,71.5,29.97,ENE,57,0.0,2.7,92,0.00,,,0.21,Cumulus v1.9.3,2013-07-01 20:56:00,
2013-07-01 17:01:00,73.9,71.5,29.97,NNE,33,0.9,3.4,92,0.00,,,0.21,Cumulus v1.9.3,2013-07-01 21:01:00,
2013-07-01 17:06:00,74.1,71.6,29.97,North,354,0.0,3.4,92,0.00,,,0.21,Cumulus v1.9.3,2013-07-01 21:06:00,
2013-07-01 17:15:00,74.3,71.8,29.97,NNW,337,0.0,0.9,92,0.00,,,0.21,Cumulus v1.9.3,2013-07-01 21:15:00,
2013-07-01 17:20:00,75.2,72.4,29.97,NE,45,0.9,5.8,91,0.00,,,0.21,Cumulus v1.9.3,2013-07-01 21:20:00,
2013-07-01 17:25:00,76.1,73.0,29.97,ENE,59,0.0,5.8,90,0.00,,,0.21,Cumulus v1.9.3,2013-07-01 21:25:00,
2013-07-01 17:30:00,76.8,73.7,29.97,East,80,0.9,3.8,90,0.00,,,0.21,Cumulus v1.9.3,2013-07-01 21:30:00,
2013-07-01 17:35:00,76.6,72.8,29.97,East,89,1.3,4.9,88,0.00,,,0.21,Cumulus v1.9.3,2013-07-01 21:35:00,
2013-07-01 17:40:00,76.6,72.8,29.97,East,91,1.6,4.9,88,0.00,,,0.21,Cumulus v1.9.3,2013-07-01 21:40:00,
2013-07-01 17:46:00,76.5,73.0,29.97,ESE,111,1.1,4.3,89,0.00,,,0.21,Cumulus v1.9.3,2013-07-01 21:46:00,
2013-07-01 17:51:00,76.3,72.8,29.97,East,98,2.9,5.4,89,0.00,,,0.21,Cumulus v1.9.3,2013-07-01 21:51:00,
2013-07-01 17:56:00,76.5,73.0,29.97,East,85,2.0,5.4,89,0.00,,,0.21,Cumulus v1.9.3,2013-07-01 21:56:00,
2013-07-01 18:01:00,77.0,73.5,30.00,East,99,0.0,2.9,89,0.00,,,0.21,Cumulus v1.9.3,2013-07-01 22:01:00,
2013-07-01 18:06:00,77.2,73.7,30.00,ESE,110,2.2,3.8,89,0.00,,,0.21,Cumulus v1.9.3,2013-07-01 22:06:00,
2013-07-01 18:11:00,77.2,73.7,30.00,ESE,109,1.1,5.6,89,0.00,,,0.21,Cumulus v1.9.3,2013-07-01 22:11:00,
2013-07-01 18:16:00,77.0,73.2,30.00,East,101,3.1,5.6,88,0.00,,,0.21,Cumulus v1.9.3,2013-07-01 22:16:00,
2013-07-01 18:21:00,76.8,73.3,30.00,ESE,114,1.3,4.9,89,0.00,,,0.21,Cumulus v1.9.3,2013-07-01 22:21:00,
2013-07-01 18:26:00,76.6,72.8,30.00,ESE,113,2.5,4.9,88,0.00,,,0.21,Cumulus v1.9.3,2013-07-01 22:26:00,
2013-07-01 18:31:00,76.5,72.6,30.00,ESE,111,0.9,5.6,88,0.00,,,0.21,Cumulus v1.9.3,2013-07-01 22:31:00,
2013-07-01 18:36:00,75.6,72.1,30.00,ESE,103,2.9,5.6,89,0.04,,,0.25,Cumulus v1.9.3,2013-07-01 22:36:00,
2013-07-01 18:41:00,75.2,72.1,30.00,East,87,1.6,4.3,90,0.04,,,0.25,Cumulus v1.9.3,2013-07-01 22:41:00,
2013-07-01 18:46:00,75.0,72.2,30.00,East,83,0.9,3.1,91,0.04,,,0.25,Cumulus v1.9.3,2013-07-01 22:46:00,
2013-07-01 18:51:00,75.0,72.2,30.00,East,91,2.2,3.6,91,0.04,,,0.25,Cumulus v1.9.3,2013-07-01 22:51:00,
2013-07-01 18:56:00,74.8,72.4,30.00,ESE,105,2.5,3.6,92,0.04,,,0.25,Cumulus v1.9.3,2013-07-01 22:56:00,
2013-07-01 19:01:00,75.0,72.5,30.03,ESE,119,2.5,4.3,92,0.04,,,0.25,Cumulus v1.9.3,2013-07-01 23:01:00,
2013-07-01 19:06:00,75.0,72.5,30.03,ESE,111,1.1,4.3,92,0.04,,,0.25,Cumulus v1.9.3,2013-07-01 23:06:00,
2013-07-01 19:11:00,74.8,72.4,30.03,East,95,1.3,3.6,92,0.04,,,0.25,Cumulus v1.9.3,2013-07-01 23:11:00,
2013-07-01 19:16:00,74.8,72.4,30.03,ESE,107,2.2,3.4,92,0.04,,,0.25,Cumulus v1.9.3,2013-07-01 23:16:00,
2013-07-01 19:21:00,75.0,72.5,30.03,ESE,109,1.6,2.9,92,0.04,,,0.25,Cumulus v1.9.3,2013-07-01 23:21:00,
2013-07-01 19:26:00,75.0,72.5,30.03,East,100,2.0,5.8,92,0.04,,,0.25,Cumulus v1.9.3,2013-07-01 23:26:00,
2013-07-01 19:31:00,74.8,72.4,30.03,East,97,0.0,5.8,92,0.04,,,0.25,Cumulus v1.9.3,2013-07-01 23:31:00,
2013-07-01 19:36:00,74.8,72.4,30.03,East,92,1.1,3.4,92,0.00,,,0.25,Cumulus v1.9.3,2013-07-01 23:36:00,
2013-07-01 19:41:00,74.8,72.4,30.03,East,92,0.0,2.7,92,0.00,,,0.25,Cumulus v1.9.3,2013-07-01 23:41:00,
2013-07-01 19:46:00,74.7,72.2,30.03,ESE,115,0.9,2.2,92,0.00,,,0.25,Cumulus v1.9.3,2013-07-01 23:46:00,
2013-07-01 19:51:00,74.7,72.5,30.03,ESE,112,0.0,2.2,93,0.00,,,0.25,Cumulus v1.9.3,2013-07-01 23:51:00,
2013-07-01 19:56:00,74.7,72.5,30.03,ESE,112,0.0,2.2,93,0.00,,,0.25,Cumulus v1.9.3,2013-07-01 23:56:00,
2013-07-01 20:01:00,74.5,72.3,30.00,ESE,104,1.6,2.7,93,0.00,,,0.25,Cumulus v1.9.3,2013-07-02 00:01:00,
2013-07-01 20:06:00,74.3,72.1,30.00,East,97,1.6,2.7,93,0.00,,,0.25,Cumulus v1.9.3,2013-07-02 00:06:00,
2013-07-01 20:11:00,74.3,72.1,30.00,East,93,0.0,2.7,93,0.00,,,0.25,Cumulus v1.9.3,2013-07-02 00:11:00,
2013-07-01 20:16:00,74.3,72.1,30.00,East,90,0.0,2.2,93,0.00,,,0.25,Cumulus v1.9.3,2013-07-02 00:16:00,
2013-07-01 20:21:00,74.1,72.0,30.00,East,90,0.0,1.3,93,0.00,,,0.25,Cumulus v1.9.3,2013-07-02 00:21:00,
2013-07-01 20:26:00,74.1,72.0,30.00,East,90,0.0,0.9,93,0.00,,,0.25,Cumulus v1.9.3,2013-07-02 00:26:00,
2013-07-01 20:31:00,74.1,72.0,30.00,North,0,0.0,0.0,93,0.00,,,0.25,Cumulus v1.9.3,2013-07-02 00:31:00,
2013-07-01 20:36:00,74.1,72.0,30.00,North,0,0.0,0.0,93,0.00,,,0.25,Cumulus v1.9.3,2013-07-02 00:36:00,
2013-07-01 20:42:00,74.1,72.0,30.00,East,90,0.0,1.1,93,0.00,,,0.25,Cumulus v1.9.3,2013-07-02 00:42:00,
2013-07-01 20:47:00,74.1,72.0,30.00,East,90,0.0,1.1,93,0.00,,,0.25,Cumulus v1.9.3,2013-07-02 00:47:00,
2013-07-01 20:52:00,74.1,72.0,30.00,East,90,0.0,2.0,93,0.00,,,0.25,Cumulus v1.9.3,2013-07-02 00:52:00,
2013-07-01 20:57:00,74.1,72.0,30.00,ESE,103,0.0,2.0,93,0.00,,,0.25,Cumulus v1.9.3,2013-07-02 00:57:00,
2013-07-01 21:02:00,74.1,72.0,30.00,ESE,117,0.0,2.0,93,0.00,,,0.25,Cumulus v1.9.3,2013-07-02 01:02:00,
2013-07-01 21:07:00,74.1,72.0,30.00,North,0,0.0,0.0,93,0.00,,,0.25,Cumulus v1.9.3,2013-07-02 01:07:00,
2013-07-01 21:12:00,74.1,72.0,30.00,North,0,0.0,0.0,93,0.00,,,0.25,Cumulus v1.9.3,2013-07-02 01:12:00,
2013-07-01 21:17:00,74.1,72.0,30.00,SSE,158,0.0,1.1,93,0.00,,,0.25,Cumulus v1.9.3,2013-07-02 01:17:00,
2013-07-01 21:22:00,73.9,71.8,30.00,SSE,158,0.0,1.1,93,0.00,,,0.25,Cumulus v1.9.3,2013-07-02 01:22:00,
2013-07-01 21:27:00,73.9,71.8,30.00,North,0,0.0,0.0,93,0.00,,,0.25,Cumulus v1.9.3,2013-07-02 01:27:00,
2013-07-01 21:32:00,73.9,71.8,30.00,SSE,158,0.0,1.1,93,0.00,,,0.25,Cumulus v1.9.3,2013-07-02 01:32:00,
2013-07-01 21:37:00,73.9,71.8,30.00,SSE,158,0.0,1.1,93,0.00,,,0.25,Cumulus v1.9.3,2013-07-02 01:37:00,
2013-07-01 21:42:00,73.9,71.8,30.03,North,0,0.0,0.0,93,0.00,,,0.25,Cumulus v1.9.3,2013-07-02 01:42:00,
2013-07-01 21:47:00,73.9,71.8,30.03,SE,139,0.9,1.3,93,0.00,,,0.25,Cumulus v1.9.3,2013-07-02 01:47:00,
2013-07-01 21:52:00,74.1,72.0,30.03,ESE,115,0.0,1.3,93,0.00,,,0.25,Cumulus v1.9.3,2013-07-02 01:52:00,
2013-07-01 21:57:00,74.1,72.0,30.03,East,90,0.0,1.3,93,0.00,,,0.25,Cumulus v1.9.3,2013-07-02 01:57:00,
2013-07-01 22:02:00,74.1,72.0,30.03,North,0,0.0,0.0,93,0.00,,,0.25,Cumulus v1.9.3,2013-07-02 02:02:00,
2013-07-01 22:07:00,74.1,72.0,30.03,North,0,0.0,0.0,93,0.00,,,0.25,Cumulus v1.9.3,2013-07-02 02:07:00,
2013-07-01 22:12:00,74.1,72.0,30.03,ESE,107,1.1,3.1,93,0.00,,,0.25,Cumulus v1.9.3,2013-07-02 02:12:00,
2013-07-01 22:17:00,74.3,72.1,30.03,ESE,110,0.0,3.1,93,0.00,,,0.25,Cumulus v1.9.3,2013-07-02 02:17:00,
2013-07-01 22:22:00,74.3,72.1,30.03,ESE,122,0.0,2.2,93,0.00,,,0.25,Cumulus v1.9.3,2013-07-02 02:22:00,
2013-07-01 22:27:00,74.3,72.1,30.03,SE,127,0.0,2.0,93,0.00,,,0.25,Cumulus v1.9.3,2013-07-02 02:27:00,
2013-07-01 22:32:00,74.3,72.1,30.03,SE,135,0.0,1.1,93,0.00,,,0.25,Cumulus v1.9.3,2013-07-02 02:32:00,
2013-07-01 22:37:00,74.3,72.1,30.03,SE,135,0.0,1.1,93,0.00,,,0.25,Cumulus v1.9.3,2013-07-02 02:37:00,
2013-07-01 22:42:00,74.3,72.1,30.03,SE,135,0.0,1.1,93,0.00,,,0.25,Cumulus v1.9.3,2013-07-02 02:42:00,
2013-07-01 22:47:00,74.3,72.1,30.03,SE,135,0.0,1.1,93,0.00,,,0.25,Cumulus v1.9.3,2013-07-02 02:47:00,
2013-07-01 22:52:00,74.3,72.1,30.03,SE,135,0.0,0.9,93,0.00,,,0.25,Cumulus v1.9.3,2013-07-02 02:52:00,
2013-07-01 22:57:00,74.1,72.0,30.03,SE,135,0.0,0.9,93,0.00,,,0.25,Cumulus v1.9.3,2013-07-02 02:57:00,
2013-07-01 23:02:00,74.3,72.1,30.03,SE,135,1.1,1.6,93,0.00,,,0.25,Cumulus v1.9.3,2013-07-02 03:02:00,
2013-07-01 23:07:00,74.3,72.1,30.03,SE,135,0.0,1.6,93,0.00,,,0.25,Cumulus v1.9.3,2013-07-02 03:07:00,
2013-07-01 23:12:00,74.3,72.1,30.03,North,0,0.0,0.0,93,0.00,,,0.25,Cumulus v1.9.3,2013-07-02 03:12:00,
2013-07-01 23:17:00,74.3,72.1,30.03,North,0,0.0,0.0,93,0.00,,,0.25,Cumulus v1.9.3,2013-07-02 03:17:00,
2013-07-01 23:22:00,74.3,72.1,30.03,North,0,0.0,0.0,93,0.00,,,0.25,Cumulus v1.9.3,2013-07-02 03:22:00,
2013-07-01 23:27:00,74.3,72.1,30.03,SE,135,0.0,0.9,93,0.00,,,0.25,Cumulus v1.9.3,2013-07-02 03:27:00,
2013-07-01 23:32:00,74.3,72.1,30.03,SE,135,0.0,0.9,93,0.00,,,0.25,Cumulus v1.9.3,2013-07-02 03:32:00,
2013-07-01 23:37:00,74.3,72.1,30.03,ESE,111,0.0,0.9,93,0.00,,,0.25,Cumulus v1.9.3,2013-07-02 03:37:00,
2013-07-01 23:42:00,74.3,72.1,30.03,ESE,112,1.1,3.1,93,0.00,,,0.25,Cumulus v1.9.3,2013-07-02 03:42:00,
2013-07-01 23:47:00,74.3,72.1,30.03,ESE,112,0.0,3.1,93,0.00,,,0.25,Cumulus v1.9.3,2013-07-02 03:47:00,
2013-07-01 23:53:00,74.3,72.1,30.03,ESE,113,2.0,3.1,93,0.00,,,0.25,Cumulus v1.9.3,2013-07-02 03:53:00,
2013-07-01 23:58:00,74.3,72.1,30.03,ESE,115,0.0,2.9,93,0.00,,,0.25,Cumulus v1.9.3,2013-07-02 03:58:00,